This is the latest recevied weather packets stored in our database for station/object LA5PPA-1. If no packets are shown the sender has not sent any weather packets the latest 10 day(s).
| Time | Temp. | Humidity | Pressure | Rain* | Wind** | Luminosity | Snow |
|---|---|---|---|---|---|---|---|
| 1777562109 | 15.56° C | 21% | 1033.2 hPa | 0 mm | - | - | - |
| 1777561928 | 15.56° C | 21% | 1033.2 hPa | 0 mm | - | - | - |
| 1777561628 | 16.11° C | 21% | 1033.2 hPa | 0 mm | - | - | - |
| 1777561449 | 16.11° C | 22% | 1033.3 hPa | 0 mm | - | - | - |
| 1777561328 | 16.11° C | 22% | 1033.2 hPa | 0 mm | - | - | - |
| 1777561028 | 16.67° C | 23% | 1033.2 hPa | 0 mm | - | - | - |
| 1777560789 | 16.67° C | 26% | 1033.2 hPa | 0 mm | - | - | - |
| 1777560728 | 16.67° C | 27% | 1033.2 hPa | 0 mm | - | - | - |
| 1777560428 | 16.67° C | 27% | 1033.2 hPa | 0 mm | - | - | - |
| 1777560128 | 16.11° C | 27% | 1033.2 hPa | 0 mm | - | - | - |
| 1777559828 | 16.11° C | 27% | 1033.3 hPa | 0 mm | - | - | - |
| 1777559528 | 16.67° C | 25% | 1033.3 hPa | 0 mm | - | - | - |
| 1777559469 | 16.67° C | 25% | 1033.2 hPa | 0 mm | - | - | - |
| 1777559228 | 16.67° C | 24% | 1033.3 hPa | 0 mm | - | - | - |
| 1777558928 | 17.22° C | 24% | 1033.3 hPa | 0 mm | - | - | - |
| 1777558809 | 16.67° C | 25% | 1033.3 hPa | 0 mm | - | - | - |
| 1777558628 | 16.67° C | 24% | 1033.4 hPa | 0 mm | - | - | - |
| 1777558328 | 17.22° C | 24% | 1033.4 hPa | 0 mm | - | - | - |
| 1777558149 | 16.67° C | 23% | 1033.4 hPa | 0 mm | - | - | - |
| 1777558028 | 17.22° C | 23% | 1033.4 hPa | 0 mm | - | - | - |
| 1777557728 | 17.22° C | 21% | 1033.5 hPa | 0 mm | - | - | - |
| 1777557489 | 17.22° C | 21% | 1033.5 hPa | 0 mm | - | - | - |
| 1777557428 | 17.22° C | 20% | 1033.4 hPa | 0 mm | - | - | - |
| 1777557128 | 17.78° C | 19% | 1033.5 hPa | 0 mm | - | - | - |
| 1777556828 | 17.22° C | 21% | 1033.5 hPa | 0 mm | - | - | - |
* Rain latest hour (hover to see other rain measurements)
** Current wind speed in m/s (hover to see current wind gust speed)